User: anonymous   Login
Location: Brno
(49.2000°N, 16.6330°E)
Time: 09:24:30
(UTC+02:00)
Language:

Cosmos 2227 - Orbit

View from above orbital plane
View from above orbital plane
View from above satellite
View from above satellite

Ground track
Ground track

The orbit data is extracted from the following two-line orbital elements,

1 22284U 92093A   17149.78277440 -.00000188 +00000-0 -74575-4 0  9993
2 22284 070.9797 274.0621 0019612 209.6129 150.3884 14.13286042259779
Epoch (UTC): 29 May 2017 18:47:11
Eccentricity: 0.0019612
inclination: 70.9797°
perigee height: 834 km
apogee height: 862 km
right ascension of ascending node: 274.0621°
argument of perigee: 209.6129°
revolutions per day: 14.13286042
mean anomaly at epoch: 150.3884°
orbit number at epoch: 25977

The dashed part of the orbit path shows where the satellite is in the earth's shadow,  

DLR